Regional Weather Roundup
Issued by NWS Cleveland, OH

Home | Current Version | Previous Version | Text Only | Print | Product List | Glossary Off
Versions: 1 2 3 4 5 6 7 8 9 10 11 12 13 14 15 16 17 18 19 20 21 22 23 24 25 26 27 28 29 30 31 32 33 34 35 36 37 38 39 40 41 42 43 44 45 46 47 48 49 50

000
ASUS41 KCLE 210202
RWRCLE
OHIO REGIONAL WEATHER ROUNDUP
NATIONAL WEATHER SERVICE CLEVELAND, OH
1000 PM EDT SAT SEP 20 2014

NOTE: "FAIR" INDICATES FEW OR NO CLOUDS BELOW 12,000 FEET WITH NO
SIGNIFICANT WEATHER AND/OR OBSTRUCTIONS TO VISIBILITY.

OHZ001>008-015>018-024>027-034-035-043-044-210300-
   NORTHWEST OHIO

CITY           SKY/WX    TMP DP  RH WIND       PRES   REMARKS
DEFIANCE       CLOUDY   N/A N/A N/A S10       29.86F
FINDLAY        RAIN      65  62  90 SW10      29.90F FOG
TOLEDO EXPRESS LGT RAIN  64  63  96 SW10      29.85S
TOLEDO EXEC    LGT RAIN  66  62  87 S15       29.86F
LIMA           LGT RAIN  65  63  93 S10       29.92F
$$

OHZ009>014-019>023-028>033-038-089-210300-
   NORTHEAST OHIO

CITY           SKY/WX    TMP DP  RH WIND       PRES   REMARKS
CLE-HOPKINS    MOCLDY    71  61  70 S10       29.92R
CLE-LAKEFRONT  MOCLDY    75  61  61 S15       29.88S
CUY CO. ARPT   NOT AVBL
LORAIN-ELYRIA  CLOUDY    74  60  61 S9        29.91S
ASHTABULA      MOCLDY    70  61  73 S7        29.91S
AKRON-CANTON   PTCLDY    71  61  70 SW10      29.95S
WOOSTER        PTCLDY    70  63  78 SW9       29.95S
MANSFIELD      MOCLDY    72  62  71 SW13      29.94F
YOUNGSTOWN     PTCLDY    70  61  73 S9        29.94S
$$

OHZ042-051>053-060>062-070>072-077>081-210300-
  SOUTHWEST OHIO

CITY           SKY/WX    TMP DP  RH WIND       PRES   REMARKS
CINC-COVINGTON MOCLDY    68  64  87 S7        29.97F
CINC-LUNKEN    PTCLDY    69  65  86 CALM      29.97F
HAMILTON       PTCLDY    67  64  90 CALM      29.96F
DAYTON         CLOUDY    74  64  71 S10       29.96F
WRIGHT-PAT AFB CLOUDY    72  64  76 S6        29.95F
DAYTON GENERAL PTCLDY    70  64  81 S7        29.96F
WILMINGTON     CLOUDY    68  62  81 S6        29.98F
$$

OHZ036-037-039>041-045>050-054>059-063>069-073>076-082>088-210300-
  CENTRAL AND SOUTHEAST OHIO

CITY           SKY/WX    TMP DP  RH WIND       PRES   REMARKS
COLUMBUS       MOCLDY    76  61  59 SW9       29.96S
OSU AIRPORT    MOCLDY    73  62  68 S9        29.95F
BOLTON FIELD   MOCLDY    68  64  85 S7        29.97F
RICKENBACK AFB MOCLDY    70  62  76 SW5       29.97S
NEWARK         MOCLDY    70  62  76 SW6       29.97R
MARION         CLOUDY    72  62  71 S10       29.93F
LANCASTER      MOCLDY    71  62  73 S5        29.98S
ZANESVILLE     PTCLDY    69  61  75 S6        29.98R
NEW PHILLY     MOCLDY    69  62  78 S3        29.97R
$$



USA.gov is the U.S. government's official web portal to all federal, state and local government web resources and services.